Regional Weather Roundup
Issued by NWS

Home | Current Version | Previous Version | Graphics & Text | Print | Product List | Glossary On
Versions: 1 2 3 4 5 6 7 8 9 10 11 12 13 14 15 16 17 18 19 20 21 22 23 24 25 26 27 28 29 30 31 32 33 34 35 36 37 38 39 40 41 42 43 44 45 46 47 48 49 50
000
ASUS43 KMKX 051910
RWRWI

WISCONSIN REGIONAL WEATHER ROUNDUP
NATIONAL WEATHER SERVICE MILWAUKEE/SULLIVAN WI
100 PM CST THU MAR 05 2015

NOTE: "FAIR" INDICATES FEW OR NO CLOUDS BELOW 12,000 FEET WITH NO
SIGNIFICANT WEATHER AND/OR OBSTRUCTIONS TO VISIBILITY.

WIZ001-002-006>008-014>016-023>028-052000-
NORTHWEST WISCONSIN

CITY           SKY/WX    TMP DP  RH WIND       PRES   REMARKS
SUPERIOR ARPT  SUNNY     10  -8  44 W9        30.42F WCI  -3
ASHLAND        SUNNY     10 -11  38 W10       30.40F WCI  -4
HAYWARD        NOT AVBL
SIREN          SUNNY      7  -9  48 SW8       30.45S WCI  -5
CUMBERLAND     SUNNY      5  -9  51 SW6       30.42F WCI  -6
RICE LAKE      SUNNY      5 -10  49 SW7       30.46F WCI  -7
CHETEK         SUNNY      5 -10  49 S7        30.46F WCI  -7
LADYSMITH      SUNNY      7 -10  45 SW8       30.43F WCI  -5
EAU CLAIRE     NOT AVBL
MENOMONIE      SUNNY      9  -9  45 CALM      30.49F
NEW RICHMOND   SUNNY      8  -7  49 W6        30.47F WCI  -2
OSCEOLA        SUNNY     10  -6  50 S7        30.51F WCI  -2
$$

WIZ003>005-009-010-017-018-052000-
NORTH CENTRAL WISCONSIN

CITY           SKY/WX    TMP DP  RH WIND       PRES   REMARKS
MANITOWISH WTR SUNNY      7 -10  45 W12G17    30.32F WCI  -9
ARBOR VITAE    SUNNY      9  -8  45 W7        30.32F WCI  -2
WOODRUFF       SUNNY      9  -8  45 W7        30.32F WCI  -2
RHINELANDER    NOT AVBL
EAGLE RIVER    SUNNY      8 -12  40 SW9       30.30F WCI  -5
LAND O LAKES   SUNNY     10 -10  39 W6        30.30F WCI   1
PHILLIPS       SUNNY      6 -10  46 SW8       30.35F WCI  -7
TOMAHAWK       SUNNY      9 -11  41 CALM      30.36F
MEDFORD        SUNNY      4 -10  51 SW8       30.38F WCI  -9
MERRILL        SUNNY      9  -9  44 W9        30.38F WCI  -4
$$

WIZ029-030-035-036-043>047-052000-
CENTRAL WISCONSIN

CITY           SKY/WX    TMP DP  RH WIND       PRES   REMARKS
WAUSAU         NOT AVBL
MOSINEE        SUNNY      7  -9  47 W9G16     30.41F WCI  -7
MARSHFIELD     NOT AVBL
STEVENS POINT  SUNNY      5 -12  43 W10G18    30.43F WCI -10
WAUPACA        SUNNY     15  -7  37 W14       30.45F WCI   0
WAUTOMA        NOT AVBL
WISC RAPIDS    NOT AVBL
CAMP DOUGLAS   NOT AVBL
$$

WIZ011>013-019>022-031-037>040-048>050-052000-
NORTHEAST WISCONSIN

CITY           SKY/WX    TMP DP  RH WIND       PRES   REMARKS
ANTIGO         SUNNY      6  -9  49 W7        30.35F WCI  -5
SHAWANO        SUNNY     14  -8  36 W10G17    30.43F WCI   1
OCONTO         SUNNY     12  -5  45 W6        30.42F WCI   3
STURGEON BAY   SUNNY      9  -6  52 W14       30.44F WCI  -8
GREEN BAY      SUNNY     12  -5  46 W9        30.44F WCI   0
MANITOWOC      NOT AVBL
APPLETON       SUNNY     10  -9  40 W9        30.42F WCI  -2
CLINTONVILLE   SUNNY     12  -8  40 W12       30.43F WCI  -2
OSHKOSH        NOT AVBL
$$

WIZ032>034-041-042-053>061-052000-
SOUTHWEST WISCONSIN

CITY           SKY/WX    TMP DP  RH WIND       PRES   REMARKS
LA CROSSE      NOT AVBL
SPARTA         SUNNY     11  -8  42 SW8       30.50F WCI  -1
VIROQUA        SUNNY      9  -7  47 NW7       30.45F WCI  -2
BOSCOBEL       NOT AVBL
PRAIRIE DU CHI SUNNY     10 -10  39 W7        30.54F WCI  -1
PLATTEVILLE    SUNNY      9  -4  55 W10       30.49F WCI  -5
$$

WIZ056-057-062-063-064-067-068-052000-
SOUTH CENTRAL WISCONSIN

CITY           SKY/WX    TMP DP  RH WIND       PRES   REMARKS
REEDSBURG      SUNNY     10  -7  46 W10       30.47F WCI  -4
BARABOO/DELLS  SUNNY     11  -8  43 W7        30.46F WCI   0
LONE ROCK      NOT AVBL
MINERAL POINT  SUNNY     12  -8  40 W12       30.46F WCI  -2
MADISON        NOT AVBL
MIDDLETON      SUNNY     15  -8  36 W10       30.47F WCI   2
WATERTOWN      SUNNY     12  -5  47 W6        30.46F WCI   3
MONROE         SUNNY     14  -2  48 W8        30.46F WCI   3
JANESVILLE     SUNNY     12  -6  44 W10       30.48F WCI  -1
$$

WIZ051-052-058>065-066-070>072-052000-
SOUTHEAST WISCONSIN

CITY           SKY/WX    TMP DP  RH WIND       PRES   REMARKS
MILWAUKEE      SUNNY     13  -8  39 W8        30.47F WCI   2
WAUKESHA       NOT AVBL
MILWAUKEE/TIMM SUNNY     12  -9  37 W10       30.47F WCI  -1
RACINE         NOT AVBL
BURLINGTON     SUNNY     11  -8  42 NW12      30.48S WCI  -4
KENOSHA        SUNNY     12  -5  46 NW12      30.47F WCI  -2
FOND DU LAC    SUNNY     13  -5  44 NW9G17    30.44F WCI   1
SHEBOYGAN      NOT AVBL
WEST BEND      SUNNY     12  -8  40 NW9G16    30.45S WCI   0
JUNEAU         SUNNY     11  -6  48 W10       30.46F WCI  -3
$$

LSZ147-162-052000-
LAKE SUPERIOR

STATION/POSITION TIME  TEMP    WIND        PRES    WAVE
                       AIR SEA DIR/SP/G            HT/PER
                 (UTC) (F)     (DEG/KT/KT) (MB)    (FT/S)
DEVILS ISLAND    1900    5     240/ 22/ 24 1030.7F
PORT WING        1840    8     270/  9/ 12 1029.8F
SAXON HARBOR     1800   10     200/  7/ 10 1029.8F
$$

LMZ867-665-643>646-052000-
LAKE MICHIGAN

STATION/POSITION TIME  TEMP    WIND        PRES    WAVE
                       AIR SEA DIR/SP/G            HT/PER
                 (UTC) (F)     (DEG/KT/KT) (MB)    (FT/S)
NORTHPORT PIER   1817    9     290/  9/ 13 1030.1F
SISTER BAY       1813   28     260/  2/  5   N/A
KEWAUNEE LAKESHO 1800   10     260/  8/ 11 1030.2F
SHEBOYGAN LAKESH 1800    9     310/  8/ 11 1033.8R
PORT WASHINGTON  1800   12     300/  8/ 11 1032.8S
MILWAUKEE LAKESH 1800   11     280/  8/ 10   N/A
KENOSHA   LAKESH 1900   11     290/ 11/ 14 1031.8F
$$

TC  - TEMPERATURE IN CELSIUS
VSB - VISIBILITY IN STATUTE MILES
WCI - WIND CHILL INDEX
HX  - HEAT INDEX



USA.gov is the U.S. government's official web portal to all federal, state and local government web resources and services.